Regional Weather Roundup
Issued by NWS

Home | Current Version | Previous Version | Graphics & Text | Print | Product List | Glossary On
Versions: 1 2 3 4 5 6 7 8 9 10 11 12 13 14 15 16 17 18 19 20 21 22 23 24 25 26 27 28 29 30 31 32 33 34 35 36 37 38 39 40 41 42 43 44 45 46 47 48 49 50
000
ASUS43 KBIS 282010
RWRND

NORTH DAKOTA REGIONAL WEATHER ROUNDUP
NATIONAL WEATHER SERVICE BISMARCK ND
200 PM CST FRI NOV 28 2014

NOTE: "FAIR" INDICATES FEW OR NO CLOUDS BELOW 12,000 FEET WITH NO
SIGNIFICANT WEATHER AND/OR OBSTRUCTIONS TO VISIBILITY.


NDZ001>003-009>011-017-282100-
NORTHWEST NORTH DAKOTA

CITY           SKY/WX    TMP DP  RH WIND       PRES   REMARKS
WILLISTON      PTSUNNY   23  17  78 SE8       29.52F WCI  14
MINOT          CLOUDY    13   7  77 E14       29.62F WCI  -2
MINOT AFB      CLOUDY    12   9  85 SE18      29.63F WCI  -5
$$

NDZ018>021-031>035-040>046-282100-
SOUTHWEST NORTH DAKOTA

CITY           SKY/WX    TMP DP  RH WIND       PRES   REMARKS
BISMARCK       MOSUNNY   20  14  77 SE12      29.65F WCI   8
DICKINSON      CLOUDY    38  29  70 SE6       29.51F
GARRISON         N/A     16  12  84 SE14      29.61F WCI   2
HETTINGER ARPT CLOUDY    38  29  70 SE6       29.56F
$$

NDZ004>008-012>016-024-026-027-054-282100-
NORTHEAST NORTH DAKOTA

CITY           SKY/WX    TMP DP  RH WIND       PRES   REMARKS
GRAND FORKS    FLURRIES  15   8  73 E8        29.83F WCI   4
GRND FRKS AFB  CLOUDY    15   9  77 SE10      29.82F WCI   2
DEVILS LAKE    CLOUDY    12   1  62 SE13      29.73F WCI  -3
$$

NDZ022-023-025-028>030-036>039-047>053-282100-
SOUTHEAST NORTH DAKOTA

CITY           SKY/WX    TMP DP  RH WIND       PRES   REMARKS
FARGO          CLOUDY    18  10  71 E6        29.82F WCI  10
JAMESTOWN      MOSUNNY   13   7  77 SE14      29.72F WCI  -2
$$




USA.gov is the U.S. government's official web portal to all federal, state and local government web resources and services.